NWS229 URMG-URMM

Flight info

Callsign NWS229
Flight time 0h 28m
Altitude 22000
Route NEGU1S NEGUB B494 RISKA R227 URILU URIL5B
Aircraft B738/M-SDE1FGHIJ1RWXYZ/LB1

Departure

Time 2026-05-07 12:35
Airport Akhmat Kadyrov Grozny International Airport (URMG)

Arrival

Time 2026-05-07 13:03
Airport Mineralnye Vody Airport (URMM)
Time Latitude Longitude Altitude Speed Heading
2026-05-07 12:05 43.38616 45.70057 522 ft 0 kts 266°
2026-05-07 12:29 43.38615 45.70038 522 ft 3 kts 267°
2026-05-07 12:29 43.38625 45.70009 522 ft 4 kts 319°
2026-05-07 12:29 43.38648 45.69999 522 ft 4 kts 352°
2026-05-07 12:30 43.38673 45.69996 522 ft 3 kts 355°
2026-05-07 12:30 43.38699 45.69993 522 ft 4 kts 357°
2026-05-07 12:30 43.38736 45.69991 522 ft 7 kts 356°
2026-05-07 12:30 43.38788 45.69994 521 ft 8 kts 18°
2026-05-07 12:31 43.38819 45.70052 522 ft 8 kts 76°
2026-05-07 12:31 43.38825 45.70132 523 ft 9 kts 86°
2026-05-07 12:31 43.38830 45.70245 524 ft 16 kts 86°
2026-05-07 12:31 43.38837 45.70413 523 ft 18 kts 87°
2026-05-07 12:32 43.38844 45.70585 523 ft 18 kts 87°
2026-05-07 12:32 43.38850 45.70750 523 ft 17 kts 86°
2026-05-07 12:32 43.38859 45.70908 522 ft 16 kts 84°
2026-05-07 12:32 43.38867 45.71058 522 ft 15 kts 86°
2026-05-07 12:33 43.38876 45.71343 522 ft 14 kts 86°
2026-05-07 12:33 43.38856 45.71454 521 ft 7 kts 123°
2026-05-07 12:33 43.38848 45.71495 521 ft 4 kts 75°
2026-05-07 12:34 43.38873 45.71499 521 ft 5 kts 312°
2026-05-07 12:34 43.38879 45.71435 521 ft 13 kts 268°
2026-05-07 12:34 43.38866 45.71155 522 ft 60 kts 267°
2026-05-07 12:34 43.38830 45.70247 524 ft 127 kts 266°
2026-05-07 12:35 43.38769 45.68824 728 ft 161 kts 269°
2026-05-07 12:35 43.38720 45.67321 1650 ft 156 kts 270°
2026-05-07 12:35 43.38654 45.65743 2162 ft 180 kts 269°
2026-05-07 12:35 43.38570 45.63905 2491 ft 205 kts 269°
2026-05-07 12:36 43.38478 45.61825 2781 ft 225 kts 268°
2026-05-07 12:36 43.38376 45.59655 3460 ft 230 kts 269°
2026-05-07 12:36 43.38273 45.57469 4286 ft 233 kts 268°
2026-05-07 12:36 43.38167 45.55257 5267 ft 231 kts 268°
2026-05-07 12:37 43.38060 45.53016 6015 ft 238 kts 268°
2026-05-07 12:37 43.37951 45.50741 6860 ft 239 kts 268°
2026-05-07 12:37 43.38074 45.48456 7541 ft 244 kts 290°
2026-05-07 12:37 43.38996 45.46523 8394 ft 244 kts 317°
2026-05-07 12:38 43.40453 45.45307 9031 ft 257 kts 341°
2026-05-07 12:38 43.42262 45.44857 9648 ft 270 kts 352°
2026-05-07 12:38 43.44155 45.44692 10382 ft 275 kts 355°
2026-05-07 12:38 43.46093 45.44581 11028 ft 282 kts 355°
2026-05-07 12:39 43.48071 45.44469 11766 ft 286 kts 355°
2026-05-07 12:39 43.50076 45.44344 12568 ft 289 kts 355°
2026-05-07 12:39 43.52103 45.44205 13360 ft 293 kts 354°
2026-05-07 12:39 43.54155 45.44056 14138 ft 298 kts 354°
2026-05-07 12:40 43.56241 45.43898 14869 ft 301 kts 354°
2026-05-07 12:40 43.58348 45.43736 15616 ft 305 kts 354°
2026-05-07 12:40 43.60480 45.43570 16390 ft 308 kts 354°
2026-05-07 12:40 43.62610 45.43404 17164 ft 312 kts 355°
2026-05-07 12:41 43.64792 45.43232 17927 ft 316 kts 355°
2026-05-07 12:41 43.67005 45.43056 18618 ft 320 kts 355°
2026-05-07 12:41 43.69247 45.42878 19273 ft 324 kts 355°
2026-05-07 12:41 43.71499 45.42593 19919 ft 326 kts 345°
2026-05-07 12:42 43.73560 45.41301 20537 ft 328 kts 322°
2026-05-07 12:42 43.75123 45.38993 20819 ft 342 kts 301°
2026-05-07 12:42 43.76349 45.36089 21106 ft 356 kts 298°
2026-05-07 12:42 43.77549 45.33012 21508 ft 367 kts 297°
2026-05-07 12:43 43.78758 45.29852 22003 ft 374 kts 297°
2026-05-07 12:43 43.79991 45.26636 22071 ft 379 kts 298°
2026-05-07 12:43 43.81230 45.23433 22099 ft 377 kts 298°
2026-05-07 12:43 43.82475 45.20235 22082 ft 377 kts 298°
2026-05-07 12:44 43.83710 45.17078 22098 ft 377 kts 298°
2026-05-07 12:44 43.84969 45.13868 22097 ft 378 kts 298°
2026-05-07 12:44 43.86226 45.10665 22099 ft 378 kts 298°
2026-05-07 12:44 43.87486 45.07453 22099 ft 379 kts 298°
2026-05-07 12:45 43.88746 45.04241 22102 ft 379 kts 298°
2026-05-07 12:45 43.89988 45.01068 22102 ft 379 kts 298°
2026-05-07 12:45 43.91248 44.97848 22099 ft 379 kts 298°
2026-05-07 12:45 43.92504 44.94634 22100 ft 379 kts 298°
2026-05-07 12:46 43.93763 44.91407 22102 ft 379 kts 298°
2026-05-07 12:46 43.95012 44.88204 22080 ft 371 kts 298°
2026-05-07 12:46 43.96221 44.85096 22098 ft 363 kts 298°
2026-05-07 12:46 43.97416 44.82025 22101 ft 360 kts 298°
2026-05-07 12:47 43.98604 44.78966 22105 ft 360 kts 298°
2026-05-07 12:47 43.99798 44.75888 21843 ft 362 kts 298°
2026-05-07 12:47 44.00971 44.72862 21542 ft 358 kts 298°
2026-05-07 12:47 44.02148 44.69824 21192 ft 355 kts 298°
2026-05-07 12:48 44.03315 44.66807 20803 ft 353 kts 298°
2026-05-07 12:48 44.04478 44.63798 20423 ft 350 kts 298°
2026-05-07 12:48 44.05626 44.60826 20046 ft 347 kts 298°
2026-05-07 12:48 44.06602 44.57763 19672 ft 345 kts 288°
2026-05-07 12:49 44.07148 44.54578 19358 ft 341 kts 279°
2026-05-07 12:49 44.07531 44.51331 19000 ft 339 kts 278°
2026-05-07 12:49 44.07892 44.48094 18633 ft 337 kts 278°
2026-05-07 12:49 44.08253 44.44876 18239 ft 335 kts 278°
2026-05-07 12:50 44.08616 44.41716 17842 ft 333 kts 279°
2026-05-07 12:50 44.08986 44.38543 17459 ft 331 kts 279°
2026-05-07 12:50 44.09357 44.35386 17090 ft 328 kts 279°
2026-05-07 12:50 44.09726 44.32263 16718 ft 326 kts 279°
2026-05-07 12:51 44.10091 44.29160 16368 ft 323 kts 279°
2026-05-07 12:51 44.10454 44.26076 16004 ft 321 kts 279°
2026-05-07 12:51 44.10807 44.23058 15666 ft 319 kts 279°
2026-05-07 12:51 44.11163 44.20015 15314 ft 317 kts 279°
2026-05-07 12:52 44.11516 44.16990 14967 ft 315 kts 279°
2026-05-07 12:52 44.11867 44.13977 14613 ft 314 kts 279°
2026-05-07 12:52 44.12215 44.10981 14273 ft 312 kts 279°
2026-05-07 12:52 44.12556 44.08042 13934 ft 311 kts 279°
2026-05-07 12:53 44.12900 44.05065 13550 ft 310 kts 280°
2026-05-07 12:53 44.13242 44.02105 13174 ft 309 kts 280°
2026-05-07 12:53 44.13580 43.99162 12820 ft 307 kts 280°
2026-05-07 12:53 44.13918 43.96226 12465 ft 305 kts 281°
2026-05-07 12:54 44.14251 43.93320 12123 ft 303 kts 280°
2026-05-07 12:54 44.14578 43.90464 11790 ft 301 kts 281°
2026-05-07 12:54 44.14906 43.87588 11455 ft 299 kts 281°
2026-05-07 12:54 44.15231 43.84730 11114 ft 298 kts 281°
2026-05-07 12:55 44.15555 43.81878 10779 ft 297 kts 281°
2026-05-07 12:55 44.15877 43.79038 10449 ft 295 kts 281°
2026-05-07 12:55 44.16187 43.76288 10330 ft 286 kts 281°
2026-05-07 12:55 44.16491 43.73587 10202 ft 278 kts 281°
2026-05-07 12:56 44.16743 43.70947 10021 ft 273 kts 274°
2026-05-07 12:56 44.16520 43.68303 9657 ft 276 kts 262°
2026-05-07 12:56 44.16154 43.65663 9315 ft 278 kts 262°
2026-05-07 12:56 44.15780 43.63008 8945 ft 279 kts 261°
2026-05-07 12:57 44.15410 43.60340 8564 ft 281 kts 262°
2026-05-07 12:57 44.15050 43.57701 8204 ft 281 kts 262°
2026-05-07 12:57 44.14686 43.55007 7847 ft 282 kts 262°
2026-05-07 12:57 44.14324 43.52308 7502 ft 284 kts 261°
2026-05-07 12:58 44.13959 43.49583 7108 ft 287 kts 262°
2026-05-07 12:58 44.13597 43.46849 6768 ft 287 kts 261°
2026-05-07 12:58 44.13233 43.44100 6379 ft 290 kts 262°
2026-05-07 12:58 44.12865 43.41336 5969 ft 290 kts 262°
2026-05-07 12:59 44.12498 43.38587 5587 ft 288 kts 262°
2026-05-07 12:59 44.12131 43.35844 5221 ft 288 kts 261°
2026-05-07 12:59 44.11800 43.33138 4846 ft 284 kts 268°
2026-05-07 12:59 44.12207 43.30538 4385 ft 274 kts 301°
2026-05-07 13:00 44.13316 43.28439 4033 ft 265 kts 307°
2026-05-07 13:00 44.14385 43.26372 3691 ft 259 kts 306°
2026-05-07 13:00 44.15422 43.24364 3384 ft 253 kts 305°
2026-05-07 13:00 44.16365 43.22341 3076 ft 245 kts 302°
2026-05-07 13:01 44.17258 43.20347 2780 ft 237 kts 303°
2026-05-07 13:01 44.18113 43.18434 2457 ft 227 kts 303°
2026-05-07 13:01 44.18921 43.16633 2136 ft 214 kts 303°
2026-05-07 13:01 44.19692 43.14930 1842 ft 202 kts 302°
2026-05-07 13:02 44.20408 43.13340 1590 ft 183 kts 302°
2026-05-07 13:02 44.21056 43.11896 1331 ft 168 kts 301°
2026-05-07 13:02 44.21642 43.10599 1153 ft 149 kts 302°
2026-05-07 13:02 44.22003 43.09801 1063 ft 141 kts 302°
2026-05-07 13:03 44.22564 43.08555 1052 ft 85 kts 302°
2026-05-07 13:03 44.22739 43.08168 1049 ft 55 kts 304°
2026-05-07 13:03 44.22878 43.07900 1049 ft 5 kts 259°
2026-05-07 13:03 44.22866 43.07893 1049 ft 3 kts 178°
2026-05-07 13:04 44.22831 43.07963 1047 ft 13 kts 122°
2026-05-07 13:04 44.22785 43.08068 1048 ft 13 kts 121°
2026-05-07 13:04 44.22731 43.08189 1049 ft 18 kts 121°
2026-05-07 13:04 44.22662 43.08342 1050 ft 18 kts 122°
2026-05-07 13:05 44.22594 43.08489 1053 ft 18 kts 123°
2026-05-07 13:05 44.22529 43.08632 1055 ft 17 kts 122°
2026-05-07 13:05 44.22455 43.08755 1054 ft 16 kts 139°
2026-05-07 13:05 44.22358 43.08845 1051 ft 17 kts 152°
2026-05-07 13:06 44.22256 43.08919 1052 ft 16 kts 152°
2026-05-07 13:06 44.22158 43.08992 1052 ft 16 kts 151°
2026-05-07 13:06 44.22065 43.09066 1051 ft 15 kts 149°